Decatur, IL

1:35 PM CDT on September 25, 2016 (GMT -0500)
Decatur

Weather History for KDEC - February, 2013

Change the Weather History Date:

Monday, February 18, 2013

  Actual Average Record
Temperature  
Mean Temperature 44 °F 32 °F  
Max Temperature 58 °F 40 °F 48 °F (2014)
Min Temperature 30 °F 24 °F 4 °F (2015)
Degree Days  
Heating Degree Days 21 33  
Month to date heating degree days 578 637  
Since 1 July heating degree days 3605 3944  
Cooling Degree Days 0 0  
Month to date cooling degree days 0 0  
Year to date cooling degree days 0 0  
Moisture  
Dew Point 36 °F    
Average Humidity 80    
Maximum Humidity 100    
Minimum Humidity 59    
Precipitation  
Precipitation 0.34 in 0.07 in 0.00 in (2016)
Month to date precipitation 1.17 1.22  
Year to date precipitation 3.32 2.96  
Sea Level Pressure  
Sea Level Pressure 29.72 in    
Wind  
Wind Speed 23 mph (SSW)    
Max Wind Speed 37 mph    
Max Gust Speed 47 mph    
Visibility 9 miles    
Events Rain , Snow    
T = Trace of Precipitation, MM = Missing Value Source: NWS Daily Summary

Daily Weather History Graph

Daily Weather History Graph

Search for Another Location

Airport or City:

Trip Planner

Search our weather history database for the weather conditions in past years. The results will help you decide how hot, cold, wet, or windy it might be!

Date:

Astronomy

Feb. 18, 2013 Rise Set
Actual Time 6:43 AM CST 5:35 PM CST
Civil Twilight 6:16 AM CST 6:02 PM CST
Nautical Twilight 5:44 AM CST 6:34 PM CST
Astronomical Twilight 5:13 AM CST 7:05 PM CST
Moon 11:21 AM CST (2/18) 1:23 AM CST (2/18)
Length of Visible Light 11h 46m
Length of Day
10h 51m
First Quarter, 58% of the Moon is Illuminated
Feb 18
First Quarter
Feb 25
Full
Mar 4
Last Quarter
Mar 11
New
Mar 19
First Quarter

Hourly Weather History & Observations

Time (CST) Temp. Windchill Dew Point Humidity Pressure Visibility Wind Dir Wind Speed Gust Speed Precip Events Conditions
12:54 AM 34.0 °F 23.8 °F 21.0 °F 59% 29.96 in 10.0 mi SSE 16.1 mph - N/A   Clear
1:54 AM 34.0 °F 22.7 °F 21.0 °F 59% 29.94 in 10.0 mi SSE 19.6 mph 24.2 mph N/A   Clear
2:54 AM 34.0 °F 24.6 °F 21.9 °F 61% 29.92 in 10.0 mi South 13.8 mph 24.2 mph N/A   Clear
3:54 AM 35.1 °F 24.8 °F 23.0 °F 61% 29.90 in 10.0 mi South 17.3 mph 24.2 mph N/A   Clear
4:54 AM 36.0 °F 25.0 °F 24.1 °F 62% 29.88 in 10.0 mi South 20.7 mph 27.6 mph N/A   Clear
5:54 AM 37.0 °F 27.0 °F 26.1 °F 65% 29.86 in 10.0 mi South 18.4 mph - N/A   Clear
6:54 AM 37.9 °F 27.9 °F 28.0 °F 68% 29.84 in 10.0 mi South 19.6 mph 25.3 mph N/A   Clear
7:54 AM 42.1 °F 32.8 °F 32.0 °F 67% 29.83 in 10.0 mi South 21.9 mph 33.4 mph N/A   Clear
8:54 AM 44.1 °F 34.6 °F 34.0 °F 68% 29.81 in 10.0 mi South 26.5 mph 33.4 mph N/A   Clear
9:54 AM 46.9 °F - 36.0 °F 66% 29.79 in 10.0 mi South 20.7 mph 34.5 mph N/A   Clear
10:54 AM 53.1 °F - 39.9 °F 61% 29.78 in 10.0 mi SSW 24.2 mph 31.1 mph N/A   Clear
11:54 AM 55.0 °F - 43.0 °F 64% 29.75 in 10.0 mi SSW 28.8 mph 35.7 mph N/A   Mostly Cloudy
12:54 PM 55.9 °F - 44.1 °F 64% 29.71 in 10.0 mi South 23.0 mph 41.4 mph N/A   Overcast
1:54 PM 55.0 °F - 43.0 °F 64% 29.68 in 10.0 mi SSW 29.9 mph 43.7 mph N/A   Mostly Cloudy
2:02 PM 55.4 °F - 42.8 °F 63% 29.67 in 10.0 mi South 29.9 mph 40.3 mph N/A   Mostly Cloudy
2:13 PM 53.6 °F - 42.8 °F 67% 29.67 in 10.0 mi South 31.1 mph 42.6 mph N/A   Overcast
2:54 PM 52.0 °F - 43.0 °F 71% 29.68 in 10.0 mi South 26.5 mph 38.0 mph N/A   Overcast
3:54 PM 50.0 °F - 44.1 °F 80% 29.64 in 10.0 mi South 29.9 mph 39.1 mph N/A   Overcast
4:20 PM 50.0 °F - 44.6 °F 82% 29.61 in 10.0 mi South 23.0 mph 40.3 mph N/A   Overcast
4:54 PM 48.9 °F - 45.0 °F 86% 29.60 in 10.0 mi South 27.6 mph 33.4 mph N/A   Overcast
5:54 PM 48.0 °F - 46.0 °F 93% 29.57 in 6.0 mi South 25.3 mph 33.4 mph 0.07 in Rain Light Rain
6:36 PM 48.2 °F - 46.4 °F 93% 29.54 in 6.0 mi South 24.2 mph 33.4 mph 0.03 in Rain Light Rain
6:54 PM 48.0 °F - 46.9 °F 96% 29.56 in 5.0 mi SSW 20.7 mph 32.2 mph 0.06 in Rain Light Rain
7:03 PM 48.2 °F - 46.4 °F 93% 29.54 in 6.0 mi South 23.0 mph 32.2 mph 0.01 in Rain Light Rain
7:54 PM 48.0 °F - 48.0 °F 100% 29.54 in 9.0 mi South 19.6 mph 27.6 mph 0.07 in Rain Light Rain
8:06 PM 44.6 °F 36.6 °F 42.8 °F 93% 29.58 in 2.5 mi West 19.6 mph 31.1 mph 0.07 in Rain Heavy Rain
8:54 PM 36.0 °F 25.0 °F 35.1 °F 97% 29.64 in 5.0 mi NW 20.7 mph 35.7 mph 0.13 in Rain Rain
9:19 PM 35.6 °F 24.8 °F 33.8 °F 93% 29.65 in 6.0 mi WNW 19.6 mph 32.2 mph 0.01 in Snow Light Snow
9:35 PM 35.6 °F 24.5 °F 33.8 °F 93% 29.67 in 9.0 mi WNW 20.7 mph 33.4 mph 0.01 in   Overcast
9:54 PM 34.0 °F 21.8 °F 32.0 °F 92% 29.69 in 7.0 mi WNW 23.0 mph 40.3 mph 0.01 in   Overcast
10:20 PM 32.0 °F 18.6 °F 30.2 °F 93% 29.70 in 10.0 mi WNW 25.3 mph 36.8 mph 0.00 in   Overcast
10:54 PM 32.0 °F 19.2 °F 30.9 °F 96% 29.75 in 10.0 mi WNW 23.0 mph 43.7 mph 0.00 in   Overcast
11:11 PM 30.2 °F 17.1 °F 28.4 °F 93% 29.75 in 10.0 mi WNW 21.9 mph 39.1 mph N/A   Mostly Cloudy
11:54 PM 30.0 °F 16.3 °F 28.0 °F 92% 29.79 in 10.0 mi West 24.2 mph 32.2 mph N/A   Overcast